Location: Thompson
(55.7500°N, 97.8670°W)
Time: 19:43:21
(UTC-06:00)

Daily predictions for brighter satellites

Satellite Brightness Start Highest point End
(mag) Time Altitude Azimuth Time Altitude Azimuth Time Altitude Azimuth
Cosmos 405 2.9 18:32:33 10° S 18:36:02 67° E 18:39:34 10° NNE
ERS-2 2.4 18:39:41 10° SE 18:43:14 47° ENE 18:46:48 10° N
Cosmos 2227 Rocket 2.2 18:37:54 10° SSW 18:43:35 86° ESE 18:49:16 10° NE
Okean 3 3.8 18:39:26 10° NNW 18:43:37 73° W 18:47:47 10° S
Resurs 01 Rocket 2.9 18:40:38 10° ESE 18:44:06 23° NE 18:47:33 10° N
SL-16 R/B 3.5 18:39:14 10° NW 18:44:37 45° WSW 18:49:58 10° S
FengYun 1-2 T 4.2 18:43:51 10° SSE 18:49:18 70° ENE 18:54:47 10° NNW
Cosmos 1782 Rocket 4.3 18:45:29 10° SSE 18:49:25 32° E 18:53:19 10° NNE
Cosmos 2219 4.1 18:44:10 10° WSW 18:49:39 50° NW 18:55:12 10° NNE
NOSS 3-2 (C) 3.6 18:44:56 10° SW 18:51:05 76° SE 18:58:03 10° NE
COSMO-SKYMED 1 2.5 18:48:10 10° NNE 18:52:32 74° ESE 18:56:53 10° S
Envisat 3.4 18:50:51 10° SE 18:55:36 42° ENE 19:00:23 10° N
CZ-4C R/B 2.8 18:49:20 10° NW 18:56:02 81° NE 19:03:46 10° SE
Cosmos 2297 Rocket 2.3 18:51:05 10° SSW 18:56:46 89° NW 19:02:29 10° NE
Aureole 3 3.5 18:51:52 10° S 18:56:47 77° E 19:00:38 10° NNE
FREGAT/IRIS 2.6 18:54:03 10° SSE 18:56:59 57° ENE 18:59:56 10° N
H-2A R/B 2.7 18:55:13 10° SSE 18:59:08 87° ENE 19:03:01 10° NNW
HJ-1C 3.7 18:56:01 10° SE 18:59:19 47° ENE 19:02:37 10° N
CENTAUR R/B 2.9 18:55:51 10° SSW 19:01:51 51° SE 19:08:45 10° NE
Cosmos 1110 Rocket 4.0 18:57:49 10° NNW 19:03:08 86° ENE 19:08:28 10° SSE
Cosmos 1939 Rocket 4.0 18:59:57 10° ESE 19:03:22 26° ENE 19:06:47 10° N
Cosmos 921 Rocket 3.9 18:59:04 10° NNW 19:03:31 55° WSW 19:07:53 10° S
Cosmos 1603 3.9 18:58:13 10° NW 19:03:54 77° WSW 19:09:30 10° SSE
Cosmos 2084 Rocket 3.7 19:01:27 10° WSW 19:05:41 66° NNW 19:09:44 10° NE
Sich 1 Rocket 3.6 19:04:42 10° S 19:09:06 58° E 19:13:28 10° NNE
USA 267 3.3 19:03:53 12° E 19:10:05 85° N 19:16:39 10° WNW
Thor Agena Rocket 4.3 19:07:00 10° NE 19:11:21 28° E 19:15:39 10° SSE
USA 186 2.7 19:10:53 11° SE 19:13:37 31° ENE 19:16:36 10° N
Cosmos 1464 Rocket 4.4 19:08:17 10° NNW 19:14:22 67° W 19:20:27 10° S
Tsikada Rocket 4.2 19:08:47 10° SSE 19:14:56 51° E 19:21:06 10° NNE
Iridium 4 Rocket 3.3 19:10:53 10° N 19:15:51 83° W 19:20:20 10° S
Cosmos 1269 Rocket 4.2 19:11:16 10° S 19:16:20 50° ESE 19:21:27 10° NE
CZ-2C R/B 4.2 19:12:39 10° N 19:17:04 61° WNW 19:21:26 10° SSW
SJ-6B 2.7 19:13:53 10° SSE 19:17:42 68° ENE 19:21:39 10° N
Meteor 1-4 Rocket 3.3 19:15:30 10° SSE 19:18:37 29° E 19:21:48 10° NNE
Okean 2 Rocket 3.5 19:14:35 10° SSE 19:18:39 38° E 19:22:47 10° NNE
COSMOS 2455 3.8 19:14:20 10° SSE 19:19:02 24° ESE 19:23:21 12° ENE
Cosmos 2263 Rocket 3.3 19:17:11 10° SSE 19:21:14 21° ESE 19:24:40 12° ENE
USA 32 4.0 19:16:03 10° S 19:21:15 72° E 19:26:29 10° N
Meteor 1-13 Rocket 4.1 19:17:42 10° NNW 19:23:17 80° ENE 19:28:48 10° SSE
Meteor 1-20 Rocket 4.3 19:17:33 10° SSW 19:23:20 89° ESE 19:29:14 10° NNE
Cosmos 158 Rocket 3.8 19:20:16 10° SSW 19:25:09 88° WNW 19:30:07 10° NNE
CZ-2D R/B 3.2 19:21:44 10° SSE 19:25:36 69° ENE 19:29:30 10° N
Okean 1 4.3 19:22:33 10° NNW 19:26:26 49° W 19:30:17 10° S
ALOS 4.3 19:22:29 10° SSW 19:26:39 31° W 19:30:51 10° NNW
Cosmos 2151 Rocket 4.4 19:24:47 10° SSE 19:28:37 29° E 19:32:26 10° NNE
Cosmos 1908 Rocket 3.8 19:24:17 10° SSW 19:28:46 78° WNW 19:33:15 10° N
Cosmos 2082 4.1 19:23:50 10° SW 19:29:26 65° NW 19:35:06 10° NNE
Cosmos 1602 3.7 19:27:35 10° S 19:31:25 60° E 19:35:16 10° NNE
Cosmos 1331 Rocket 4.4 19:26:46 10° NNW 19:32:04 69° WSW 19:37:19 10° SSE
ARGOS 4.3 19:32:03 20° E 19:34:07 25° NE 19:38:26 10° N
ATLAS CENTAUR R/B 2.0 19:30:50 10° NW 19:34:51 57° SW 19:39:07 10° SSE
ATLAS 3B R/B 3.3 19:28:19 10° WSW 19:35:16 56° NNW 19:41:47 11° NE
ERS-1 Rocket 4.3 19:35:43 19° ENE 19:36:56 21° NE 19:40:40 10° N
Landsat 4 4.1 19:35:08 10° NNE 19:38:52 67° WNW 19:42:37 10° SSW
Cosmos 2279 Rocket 4.2 19:33:04 10° N 19:39:06 47° ENE 19:44:57 11° SE
YAOGAN 6 2.9 19:37:32 23° SE 19:39:24 44° ENE 19:42:50 10° N
EO 1 Del DPAF 3.3 19:35:35 10° NNE 19:39:26 78° WNW 19:43:15 10° SSW
Cosmos 2346 Rocket 4.4 19:38:37 10° S 19:44:41 61° E 19:50:43 10° NNE
Spot 2 Rocket 3.6 19:40:28 12° SE 19:45:03 57° ENE 19:50:03 10° N
Cosmos 1633 4.0 19:41:44 10° SW 19:45:08 40° WNW 19:48:35 10° N
NOSS 3-2 (A) 4.0 19:39:44 10° WSW 19:46:00 63° NNW 19:52:46 11° NE
ARGOS Delta rocket 3.9 19:41:52 10° NNE 19:46:42 54° E 19:51:13 10° S
Cosmos 1975 Rocket 4.2 19:43:15 10° NNW 19:47:32 48° W 19:51:49 10° SSW
Meteor 2-4 Rocket 3.8 19:42:07 10° NNW 19:47:59 83° W 19:53:40 10° S
H-2A R/B 3.3 19:47:17 23° ENE 19:48:35 25° NE 19:52:57 10° N
Cosmos 1048 Rocket 4.1 19:46:30 10° SSW 19:51:49 81° WNW 19:57:05 10° NNE
Cosmos 2227 4.2 19:47:31 10° SSW 19:53:09 63° ESE 19:58:46 10° NE
Cosmos 1174 4.0 19:49:32 10° NW 19:53:36 49° NE 19:54:26 40° ENE
Meteor 1-5 Rocket 4.5 19:52:03 10° SSE 19:57:45 50° E 20:03:31 10° NNE
Cosmos 2082 Rocket 3.8 19:53:32 10° NNW 19:57:50 22° NNE 20:00:08 17° NE
Cosmos 1437 Rocket 3.3 19:54:14 10° SSW 19:58:19 65° WNW 20:02:27 10° N
Resurs 1-3 3.5 19:54:18 12° SSE 19:58:23 81° ENE 20:02:48 10° NNW
Alouette 2 Rocket 3.3 19:57:42 10° S 20:01:15 57° E 20:05:41 10° NNE
Cosmos 1184 Rocket 3.9 19:58:10 10° NNW 20:01:20 44° W 20:04:29 10° S
Cosmos 1634 Rocket 4.0 19:55:57 10° NNW 20:02:10 87° W 20:08:21 10° S
Cosmos 2251 Rocket 3.8 19:59:28 10° S 20:04:21 41° ESE 20:09:15 10° NE
Cosmos 1302 Rocket 4.4 19:59:14 10° NNW 20:04:25 64° WSW 20:09:32 10° SSE
Cosmos 1340 Rocket 3.3 20:00:44 10° N 20:04:24 38° ENE 20:04:24 38° ENE
USA 238 DEB 4.4 19:59:23 10° W 20:06:09 50° NNW 20:11:35 17° NE
USA 238 4.4 19:59:28 10° W 20:06:14 50° NNW 20:11:41 17° NE
Cosmos 1536 2.8 20:02:16 10° S 20:06:16 58° E 20:10:18 10° NNE
SeaSat 1 3.0 20:01:52 10° SSE 20:06:44 57° WSW 20:11:37 10° NW
Cosmos 1943 4.0 20:01:40 10° NW 20:07:07 50° WSW 20:12:33 10° S
Terra 3.8 20:08:00 13° NE 20:08:00 13° NE 20:09:52 10° NNE
Cosmos 1300 Rocket 3.9 20:08:31 42° E 20:08:31 42° E 20:12:20 10° NNE
NOAA 11 4.2 20:05:26 26° SE 20:08:27 61° ENE 20:13:49 10° NNW
Cosmos 1515 3.5 20:05:21 10° N 20:09:10 74° ENE 20:10:11 46° SSE
CSL-04 DEB 4.3 20:10:50 52° ESE 20:11:33 62° ENE 20:15:27 10° NNW
Okean 2 3.3 20:10:40 10° N 20:14:48 61° ENE 20:15:20 55° ESE
USA 215 4.0 20:14:51 29° SE 20:15:00 29° SE 20:20:30 10° S
Cosmos 1536 Rocket 3.9 20:13:45 10° NNW 20:18:10 67° W 20:22:22 11° S
COSMOS 2406 3.4 20:13:38 10° NNW 20:19:13 53° NE 20:20:47 41° E
Meteor 1-11 Rocket 3.7 20:14:05 10° SSW 20:19:45 89° E 20:25:35 10° NNE
Resurs 01 Rocket 1.9 20:16:18 13° S 20:20:12 68° WSW 20:24:39 10° NNW
Okean 1-7 Rocket 3.8 20:18:44 10° N 20:22:45 47° ENE 20:22:45 47° ENE
Cosmos 1025 Rocket 2.9 20:19:30 10° N 20:23:54 69° ENE 20:24:28 60° ESE
Gbstr 26 Del rocket 4.3 20:24:38 10° SW 20:26:33 23° S 20:26:33 23° S
Cosmos 2227 Rocket 3.9 20:23:18 10° W 20:28:18 31° NW 20:33:19 10° NNE
Envisat 4.3 20:29:56 10° SSW 20:34:42 40° W 20:39:30 10° NNW
MetOp-A 4.1 20:37:13 54° ESE 20:38:02 61° ENE 20:43:20 10° NNW
Cosmos 1939 Rocket 3.8 20:35:26 19° SSW 20:38:07 48° W 20:42:07 10° NNW
SPOT 5 3.8 20:41:37 38° NE 20:41:37 38° NE 20:46:09 10° N
Cosmos 2297 Rocket 3.9 20:36:36 10° W 20:41:33 30° NNW 20:46:32 10° NNE
Cosmos 494 Rocket 4.0 20:36:39 10° SSW 20:41:52 78° WNW 20:47:04 10° NNE
SL-24 DEB 4.2 20:37:36 10° N 20:42:15 82° W 20:44:54 25° SSW
NOSS 3-2 (C) 4.3 20:36:12 10° W 20:42:28 53° NNW 20:47:15 21° NE
USA 186 4.0 20:42:25 16° SW 20:44:24 26° W 20:47:17 10° NW
CZ-4C R/B 3.9 20:38:00 10° WNW 20:44:26 41° WSW 20:50:37 14° S
Meteor 2-20 4.3 20:40:55 22° S 20:44:58 65° E 20:51:06 10° NNE
Thor Agena Rocket 4.0 20:46:00 10° NNE 20:51:02 60° WNW 20:56:00 10° SW
Cosmos 1833 Rocket 3.6 20:47:18 10° NNW 20:52:24 32° NE 20:52:44 32° NE
CENTAUR R/B 3.0 20:45:58 10° WSW 20:52:28 66° NNW 20:57:44 21° NE
USA 267 3.4 20:51:14 43° SSE 20:53:21 62° SSW 20:59:51 10° WNW
Meteor 1-4 Rocket 4.4 20:50:29 10° SW 20:53:42 31° WNW 20:57:00 10° N
Helios 1A 4.2 21:05:51 36° N 21:05:51 36° N 21:08:26 10° NNW
COSMOS 2455 2.7 20:58:15 10° SW 21:04:18 88° SE 21:06:36 41° NE
Cosmos 2263 Rocket 2.0 20:58:50 10° SSW 21:04:26 88° ESE 21:06:39 39° NE
GEOS 3 Rocket 4.5 21:10:07 39° NE 21:10:42 40° NNE 21:15:44 10° NW
SPOT 1/Viking Rocket 4.2 21:13:55 45° NNE 21:13:55 45° NNE 21:17:49 10° N
SL-08 RB Rocket 4.3 21:13:52 53° N 21:13:52 53° N 21:17:29 10° NNW
ATLAS CENTAUR R/B 4.3 21:11:41 10° W 21:13:06 11° WSW 21:14:34 10° SW
ARGOS 3.1 21:13:33 78° SSW 21:13:51 82° WSW 21:19:19 10° NNW
ERS-1 Rocket 3.1 21:15:42 72° NNW 21:15:42 72° NNW 21:20:14 10° NNW
ATLAS 3B R/B 3.5 21:20:34 10° WNW 21:27:09 43° N 21:29:03 36° NE
H-2A R/B 2.2 21:27:54 75° NW 21:27:54 75° NW 21:32:59 10° NNW
MetOp-B 4.5 21:35:42 61° W 21:35:42 61° W 21:40:57 10° NNW
NOSS 3-2 (A) 4.5 21:31:37 10° WNW 21:38:00 46° N 21:40:10 36° NE
ASTEX 1 4.4 21:37:04 10° N 21:40:24 41° N 21:40:24 41° N
Cosmos 2082 Rocket 3.0 21:37:42 10° NNW 21:41:59 43° N 21:41:59 43° N
Terra 3.5 21:46:53 26° N 21:46:53 26° N 21:49:05 10° N
Cosmos 2251 Rocket 4.5 21:41:37 10° SW 21:46:39 45° NW 21:51:42 10° NNE
USA 238 DEB 4.3 21:51:33 10° WNW 21:58:21 49° NNE 21:59:01 48° NNE
USA 238 4.3 21:51:39 10° WNW 21:58:26 49° NNE 21:59:07 47° NNE
USA 215 4.4 22:02:13 30° SW 22:02:13 30° SW 22:05:21 10° SW
COSMOS 2406 4.2 21:58:10 10° NW 22:02:51 40° W 22:02:51 40° W
Nadezhda 4 Rocket 4.4 22:08:57 61° WNW 22:08:57 61° WNW 22:15:07 10° N
SPOT 5 4.4 22:20:51 36° NW 22:20:51 36° NW 22:24:24 10° NNW
NOSS 3-2 (C) 4.4 22:28:07 10° WNW 22:34:40 48° N 22:34:41 48° N
Cosmos 1833 Rocket 4.1 22:31:15 10° NW 22:34:26 35° NW 22:34:26 35° NW
CENTAUR R/B 3.6 22:37:36 10° WNW 22:44:17 47° N 22:44:56 46° NNE
Cosmos 2263 Rocket 3.8 22:44:09 10° W 22:54:05 10° NNE 22:48:38 30° NW
COSMOS 2455 4.2 22:45:18 10° W 22:49:51 35° NW 22:49:51 35° NW
H-2A R/B 4.5 23:08:31 17° WNW 23:08:31 17° WNW 23:11:23 10° NW
ATLAS 3B R/B 3.8 23:12:06 10° NW 23:16:17 38° NW 23:16:17 38° NW
Cosmos 2082 Rocket 4.4 23:22:00 10° NW 23:23:50 20° NW 23:23:50 20° NW
